Fosston, MN

1:25 PM CDT on April 27, 2017 (GMT -0500)
Fosston Municipal

Weather History for KFSE - January, 2014

Change the Weather History Date:

Friday, January 24, 2014

  Actual Average Record
Temperature  
Mean Temperature 14 °F -  
Max Temperature 26 °F 18 °F 40 °F (1973)
Min Temperature 0 °F -3 °F -40 °F (1966)
Degree Days  
Heating Degree Days 52    
Moisture  
Dew Point 14 °F    
Average Humidity 84    
Maximum Humidity 93    
Minimum Humidity 60    
Precipitation  
Precipitation 0.00 in - - ()
Sea Level Pressure  
Sea Level Pressure 29.61 in    
Wind  
Wind Speed 15 mph (West)    
Max Wind Speed 28 mph    
Max Gust Speed 41 mph    
Visibility 7 miles    
Events Snow    
Averages and records for this station are not official NWS values.
T = Trace of Precipitation, MM = Missing Value Source: NWS Daily Summary

Daily Weather History Graph

Daily Weather History Graph

Search for Another Location

Airport or City:

Trip Planner

Search our weather history database for the weather conditions in past years. The results will help you decide how hot, cold, wet, or windy it might be!

Date:

Astronomy

Jan. 24, 2014 Rise Set
Actual Time 7:58 AM CST 5:12 PM CST
Civil Twilight 7:25 AM CST 5:45 PM CST
Nautical Twilight 6:47 AM CST 6:23 PM CST
Astronomical Twilight 6:11 AM CST 6:59 PM CST
Moon 1:21 AM CST (1/24) 11:35 AM CST (1/24)
Length of Visible Light 10h 20m
Length of Day
9h 13m
Last Quarter, 44% of the Moon is Illuminated
Jan 24
Last Quarter
Jan 30
New
Feb 6
First Quarter
Feb 14
Full
Feb 22
Last Quarter

Hourly Weather History & Observations

Time (CST) Temp. Windchill Dew Point Humidity Pressure Visibility Wind Dir Wind Speed Gust Speed Precip Events Conditions
12:16 AM 8.6 °F -11.9 °F 6.8 °F 92% 29.76 in 0.5 mi SSW 23.0 mph - N/A Snow Snow
12:35 AM 10.4 °F -9.1 °F 8.6 °F 92% 29.75 in 0.8 mi SSW 21.9 mph 33.4 mph N/A Snow Snow
12:55 AM 10.4 °F -9.5 °F 8.6 °F 92% 29.73 in 1.5 mi SSW 23.0 mph 28.8 mph N/A Snow Light Snow
1:16 AM 12.2 °F -4.8 °F 10.4 °F 92% 29.72 in 2.0 mi SSW 17.3 mph 25.3 mph N/A Snow Light Snow
1:36 AM 12.2 °F -5.8 °F 10.4 °F 92% 29.70 in 3.0 mi SSW 19.6 mph 24.2 mph N/A   Overcast
1:55 AM 14.0 °F -2.5 °F 12.2 °F 93% 29.69 in 7.0 mi SSW 17.3 mph - N/A   Overcast
2:15 AM 14.0 °F -1.4 °F 12.2 °F 93% 29.68 in 10.0 mi SSW 15.0 mph - N/A   Overcast
2:36 AM 15.8 °F 0.9 °F 12.2 °F 86% 29.67 in 10.0 mi SSW 15.0 mph - N/A   Overcast
2:55 AM 15.8 °F 1.4 °F 12.2 °F 86% 29.67 in 10.0 mi SW 13.8 mph 18.4 mph N/A   Overcast
3:15 AM 15.8 °F 1.4 °F 14.0 °F 93% 29.67 in 10.0 mi SW 13.8 mph 17.3 mph N/A   Overcast
3:35 AM 17.6 °F 5.7 °F 14.0 °F 86% 29.67 in 10.0 mi SW 10.4 mph - N/A   Overcast
3:55 AM 17.6 °F 5.7 °F 14.0 °F 86% 29.66 in 10.0 mi SW 10.4 mph - N/A   Overcast
4:15 AM 17.6 °F 6.4 °F 15.8 °F 93% 29.67 in 10.0 mi WSW 9.2 mph - N/A   Overcast
4:35 AM 19.4 °F 7.9 °F 15.8 °F 86% 29.67 in 10.0 mi WSW 10.4 mph - N/A   Overcast
4:55 AM 19.4 °F 9.5 °F 15.8 °F 86% 29.66 in 10.0 mi WSW 8.1 mph - N/A   Overcast
5:15 AM 19.4 °F 9.5 °F 17.6 °F 93% 29.67 in 10.0 mi WSW 8.1 mph - N/A   Overcast
5:35 AM 19.4 °F 10.4 °F 17.6 °F 93% 29.66 in 10.0 mi WSW 6.9 mph - N/A   Overcast
5:55 AM 19.4 °F 10.4 °F 17.6 °F 93% 29.65 in 10.0 mi West 6.9 mph - N/A   Overcast
6:15 AM 21.2 °F 13.6 °F 19.4 °F 93% 29.63 in 10.0 mi WSW 5.8 mph - N/A   Overcast
6:35 AM 21.2 °F 11.7 °F 19.4 °F 93% 29.64 in 10.0 mi West 8.1 mph - N/A   Overcast
6:55 AM 21.2 °F 10.9 °F 19.4 °F 93% 29.63 in 10.0 mi West 9.2 mph - N/A   Overcast
7:15 AM 23.0 °F 13.1 °F 19.4 °F 86% 29.62 in 10.0 mi West 9.2 mph - N/A   Overcast
7:35 AM 23.0 °F 13.1 °F 19.4 °F 86% 29.62 in 10.0 mi West 9.2 mph - N/A   Overcast
7:55 AM 23.0 °F 13.1 °F 19.4 °F 86% 29.62 in 10.0 mi West 9.2 mph - N/A   Overcast
8:16 AM 23.0 °F 13.1 °F 19.4 °F 86% 29.60 in 10.0 mi West 9.2 mph - N/A   Overcast
8:35 AM 23.0 °F 13.1 °F 19.4 °F 86% 29.60 in 10.0 mi WSW 9.2 mph - N/A   Overcast
8:55 AM 23.0 °F 13.1 °F 19.4 °F 86% 29.60 in 10.0 mi WSW 9.2 mph - N/A   Overcast
9:16 AM 21.2 °F 8.3 °F 19.4 °F 93% 29.60 in 10.0 mi West 13.8 mph - N/A   Overcast
9:35 AM 21.2 °F 9.5 °F 19.4 °F 93% 29.59 in 10.0 mi West 11.5 mph - N/A   Overcast
9:55 AM 21.2 °F 10.9 °F 19.4 °F 93% 29.59 in 10.0 mi West 9.2 mph - N/A   Overcast
10:16 AM 21.2 °F 9.5 °F 19.4 °F 93% 29.58 in 7.0 mi West 11.5 mph - N/A   Overcast
10:35 AM 23.0 °F 13.9 °F 19.4 °F 86% 29.56 in 7.0 mi West 8.1 mph - N/A   Overcast
10:55 AM 23.0 °F 12.4 °F 19.4 °F 86% 29.56 in 10.0 mi West 10.4 mph - N/A   Overcast
11:16 AM 23.0 °F 13.1 °F 19.4 °F 86% 29.56 in 10.0 mi West 9.2 mph - N/A   Overcast
11:35 AM 23.0 °F 12.4 °F 19.4 °F 86% 29.55 in 10.0 mi West 10.4 mph - N/A   Overcast
11:55 AM 24.8 °F 15.3 °F 19.4 °F 80% 29.54 in 10.0 mi West 9.2 mph - N/A   Overcast
12:16 PM 24.8 °F 15.3 °F 19.4 °F 80% 29.53 in 10.0 mi WSW 9.2 mph - N/A   Overcast
12:35 PM 24.8 °F 16.1 °F 19.4 °F 80% 29.51 in 2.0 mi WSW 8.1 mph - N/A Snow Light Snow
12:55 PM 24.8 °F 15.3 °F 21.2 °F 86% 29.50 in 2.0 mi WSW 9.2 mph - N/A Snow Light Snow
1:15 PM 24.8 °F 16.1 °F 21.2 °F 86% 29.49 in 2.0 mi WSW 8.1 mph - N/A Snow Light Snow
1:35 PM 24.8 °F 15.3 °F 21.2 °F 86% 29.48 in 1.0 mi WSW 9.2 mph - N/A Snow Light Snow
1:55 PM 24.8 °F 15.3 °F 21.2 °F 86% 29.47 in 1.2 mi West 9.2 mph - N/A Snow Light Snow
2:16 PM 26.6 °F 16.2 °F 23.0 °F 86% 29.46 in 1.8 mi West 11.5 mph 16.1 mph N/A Snow Light Snow
2:35 PM 26.6 °F 15.2 °F 23.0 °F 86% 29.46 in 2.0 mi West 13.8 mph - N/A Snow Light Snow
2:55 PM 26.6 °F 15.2 °F 24.8 °F 93% 29.46 in 7.0 mi WNW 13.8 mph - N/A Snow Light Snow
3:15 PM 26.6 °F 14.7 °F 24.8 °F 93% 29.48 in 7.0 mi WNW 15.0 mph 24.2 mph N/A   Overcast
3:35 PM 26.6 °F 14.3 °F 24.8 °F 93% 29.47 in 7.0 mi WNW 16.1 mph 23.0 mph N/A   Overcast
3:55 PM 26.6 °F 13.8 °F 24.8 °F 93% 29.48 in 10.0 mi WNW 17.3 mph 24.2 mph N/A   Overcast
4:15 PM 26.6 °F 13.1 °F 24.8 °F 93% 29.49 in 7.0 mi NW 19.6 mph 26.5 mph N/A   Overcast
4:33 PM 26.6 °F 13.8 °F 23.0 °F 86% 29.49 in 7.0 mi NW 17.3 mph 27.6 mph N/A   Overcast
4:55 PM 26.6 °F 13.8 °F 23.0 °F 86% 29.50 in 7.0 mi NW 17.3 mph 27.6 mph N/A   Overcast
5:15 PM 26.6 °F 12.7 °F 21.2 °F 80% 29.51 in 4.0 mi NW 20.7 mph 32.2 mph N/A   Overcast
5:35 PM 26.6 °F 12.0 °F 21.2 °F 80% 29.52 in 4.0 mi NW 23.0 mph 28.8 mph N/A   Overcast
5:55 PM 26.6 °F 13.1 °F 21.2 °F 80% 29.53 in 5.0 mi NW 19.6 mph 26.5 mph N/A Snow Light Snow
6:15 PM 24.8 °F 8.7 °F 19.4 °F 80% 29.56 in 1.8 mi NNW 26.5 mph 41.4 mph N/A   Overcast
6:36 PM 21.2 °F 4.2 °F 17.6 °F 86% 29.58 in 5.0 mi NNW 25.3 mph 28.8 mph N/A   Overcast
6:55 PM 17.6 °F -1.3 °F 12.2 °F 79% 29.60 in 1.8 mi NNW 27.6 mph 39.1 mph N/A Snow Light Snow
7:15 PM 15.8 °F -3.7 °F 10.4 °F 79% 29.61 in 2.5 mi North 27.6 mph 34.5 mph N/A Snow Light Snow
7:36 PM 14.0 °F -5.1 °F 8.6 °F 79% 29.63 in 5.0 mi NNW 24.2 mph 28.8 mph N/A   Haze
7:55 PM 12.2 °F -6.3 °F 6.8 °F 79% 29.64 in 5.0 mi NNW 20.7 mph 28.8 mph N/A   Haze
8:16 PM 10.4 °F -8.6 °F 1.4 °F 67% 29.65 in 5.0 mi NNW 20.7 mph 33.4 mph N/A Snow Light Snow
8:35 PM 8.6 °F -10.5 °F 1.4 °F 73% 29.66 in 10.0 mi NNW 19.6 mph - N/A   Clear
8:55 PM 8.6 °F -9.5 °F -2.2 °F 62% 29.67 in 10.0 mi NNW 17.3 mph - N/A   Clear
9:16 PM 6.8 °F -12.4 °F -2.2 °F 67% 29.68 in 10.0 mi NNW 18.4 mph - N/A   Clear
9:35 PM 6.8 °F -11.8 °F -2.2 °F 67% 29.69 in 10.0 mi NNW 17.3 mph - N/A   Clear
9:55 PM 6.8 °F -13.8 °F -4.0 °F 61% 29.70 in 7.0 mi NNW 21.9 mph 29.9 mph N/A   Clear
10:15 PM 3.2 °F -13.9 °F -5.8 °F 66% 29.72 in 10.0 mi NNW 12.7 mph 26.5 mph N/A   Clear
10:35 PM 3.2 °F -16.5 °F -5.8 °F 66% 29.72 in 10.0 mi NNW 17.3 mph - N/A   Clear
10:55 PM 1.4 °F -18.8 °F -7.6 °F 66% 29.73 in 10.0 mi NNW 17.3 mph - N/A   Clear
11:15 PM 1.4 °F -19.4 °F -9.4 °F 61% 29.73 in 10.0 mi NNW 18.4 mph - N/A   Clear
11:35 PM 1.4 °F -18.2 °F -9.4 °F 61% 29.74 in 10.0 mi NNW 16.1 mph - N/A   Clear
11:55 PM -0.4 °F -18.4 °F -11.2 °F 60% 29.75 in 10.0 mi NW 12.7 mph - N/A   Clear